Location: Elliott Corner
(37.4627°N, 119.7746°W)
Time: 00:03:36
(UTC+00:00)

CBERS-1 - Pass Details

Date: 10 September 2024
Orbit: 766 x 774 km, 98.8° (Epoch: 13 October)

Event Time Altitude Azimuth Distance (km) Brightness Sun altitude
Rises 13:01:58 0° 8° (N) 3,242 7.5 -7.8°
Reaches altitude 10° 13:04:18 10° 5° (N) 2,311 6.7 -7.3°
Maximum altitude 13:09:17 58° 287° (WNW) 891 4.1 -6.4°
Drops below altitude 10° 13:14:15 10° 209° (SSW) 2,299 6.1 -5.4°
Sets 13:16:34 0° 206° (SSW) 3,223 6.9 -4.9°
